This demonstration page uses our WeatherBlox Daily Observations layout. Learn more.

Left ArrowRight Arrow

39.01783, -85.05884

Hourly Observations for April 27, 2019

Temp ( °F °C ) Dew Point ( °F °C ) Humidity (%) Winds ( mph kmh ) Pressure ( in mb ) Visibility ( mi km ) Precip ( " mm )
12:52 am 00:52 Clear 50 10 34 1.1 54 54 W 6 9 29.89 1012 10 16 N/A
1:52 am 01:52 Clear 48 8.9 34 1.1 58 58 W 8 13 29.91 1013 10 16 N/A
2:52 am 02:52 Clear 46 7.8 34 1.1 63 63 WSW 5 7 29.91 1013 10 16 N/A
3:52 am 03:52 Clear 46 7.8 33 0.6 61 61 WSW 5 7 29.91 1013 10 16 N/A
4:52 am 04:52 Clear 42 5.6 34 1.1 73 73 SW 5 7 29.92 1013 10 16 N/A
5:52 am 05:52 Clear 45 7.2 33 0.6 63 63 WSW 7 11 29.92 1013 10 16 N/A
6:52 am 06:52 Partly Cloudy 45 7.2 33 0.6 63 63 WSW 8 13 29.93 1014 10 16 N/A
7:52 am 07:52 Mostly Sunny 47 8.3 35 1.7 63 63 WSW 6 9 29.96 1015 10 16 N/A
8:52 am 08:52 Partly Cloudy 50 10 36 2.2 59 59 WNW 8 13 29.97 1015 10 16 N/A
9:52 am 09:52 Partly Cloudy 54 12.2 35 1.7 49 49 N 6 9 29.96 1015 10 16 N/A
10:52 am 10:52 Partly Cloudy 57 13.9 36 2.2 45 45 VRB 3 6 29.96 1015 10 16 N/A
11:52 am 11:52 Mostly Cloudy 60 15.6 35 1.7 39 39 W 6 9 29.94 1014 10 16 N/A
12:52 pm 12:52 Mostly Cloudy 62 16.7 37 2.8 40 40 W 7 11 29.92 1013 10 16 N/A
1:52 pm 13:52 Cloudy 60 15.6 37 2.8 42 42 SSW 8 13 29.89 1012 10 16 N/A
2:52 pm 14:52 Cloudy 59 15 35 1.7 41 41 S 8 13 29.87 1011 10 16 N/A
3:52 pm 15:52 Cloudy with Light Rain 55 12.8 40 4.4 57 57 SW 12 19 29.89 1012 10 16 N/A
5:52 pm 17:52 Cloudy with Light Rain 53 11.7 44 6.7 72 72 SE 9 15 29.85 1011 10 16 N/A
6:52 pm 18:52 Cloudy with Light Rain 51 10.6 45 7.2 80 80 ESE 9 15 29.82 1010 4 6 0.03 0.76
7:52 pm 19:52 Cloudy with Light Rain 50 10 45 7.2 83 83 ESE 9 15 29.77 1008 10 16 0.04 1.02
8:52 pm 20:52 Cloudy 51 10.6 45 7.2 80 80 ESE 10 17 29.75 1007 10 16 N/A
9:52 pm 21:52 Cloudy 51 10.6 45 7.2 80 80 SE 12 19 29.74 1007 10 16 N/A
10:52 pm 22:52 Cloudy 51 10.6 45 7.2 80 80 SSE 14 22 29.70 1006 10 16 N/A
11:52 pm 23:52 Partly Cloudy 51 10.6 44 6.7 77 77 S 14 22 29.66 1005 10 16 N/A

Powered by AerisWeather